Location: Prescott
(34.5400°N, 112.4680°W)
Time: 21:29:51
(UTC-07:00)

N. Korean satellite - Visible Passes

Search period start: 17 November 2017 00:00
Search period end: 27 November 2017 00:00
Orbit: 460 x 515 km, 97.2° (Epoch: 17 November)

Date Brightness Start Highest point End Pass type
(mag) Time Alt. Az. Time Alt. Az. Time Alt. Az.
17 Nov 6.8 18:44:14 10° S 18:47:40 67° W 18:51:10 10° NNW visible
18 Nov 10.1 06:16:16 10° ENE 06:18:08 13° E 06:19:58 10° ESE visible
18 Nov 6.6 18:20:52 10° SSE 18:24:14 52° ENE 18:27:40 10° N visible
19 Nov 7.6 17:58:02 10° SE 18:00:52 24° ENE 18:03:46 10° NNE visible
19 Nov 9.8 19:32:27 10° SW 19:34:23 14° W 19:36:20 10° WNW visible
20 Nov 8.5 19:07:42 10° SSW 19:10:47 29° W 19:13:54 10° NW visible
21 Nov 9.3 06:38:08 10° NE 06:41:20 26° E 06:44:31 10° SSE visible
21 Nov 6.8 18:43:48 10° S 18:47:15 67° W 18:50:47 10° NNW visible
22 Nov 10.1 06:15:52 10° ENE 06:17:44 13° E 06:19:36 10° ESE visible
22 Nov 6.6 18:20:25 10° SSE 18:23:47 52° ENE 18:27:16 10° N visible
23 Nov 7.6 17:57:32 10° SE 18:00:25 24° ENE 18:03:20 10° NNE visible
23 Nov 9.7 19:31:56 10° SW 19:33:55 14° W 19:35:56 10° WNW visible
24 Nov 8.5 19:07:11 10° SSW 19:10:17 30° W 19:13:28 10° NW visible
25 Nov 9.3 06:37:40 10° NE 06:40:53 26° E 06:44:04 10° SSE visible
25 Nov 6.8 18:43:16 10° S 18:46:45 68° W 18:50:19 10° NNW visible
26 Nov 10.1 06:15:24 10° ENE 06:17:15 13° E 06:19:06 10° ESE visible
26 Nov 6.6 18:19:51 10° SSE 18:23:17 52° ENE 18:26:47 10° N visible
